Spokane Fairchild, WA

11:48 PM PDT on August 16, 2017 (GMT -0700)
Fairchild Air Force Base

Weather History for KSKA - April, 2014

Change the Weather History Date:

Saturday, April 26, 2014

  Actual Average Record
Temperature  
Mean Temperature 44 °F -  
Max Temperature 52 °F 58 °F 75 °F (2004)
Min Temperature 36 °F 36 °F 28 °F (2015)
Degree Days  
Heating Degree Days 21    
Moisture  
Dew Point 34 °F    
Average Humidity 72    
Maximum Humidity 100    
Minimum Humidity 43    
Precipitation  
Precipitation 0.00 in - - ()
Sea Level Pressure  
Sea Level Pressure 29.69 in    
Wind  
Wind Speed 11 mph (SSW)    
Max Wind Speed 23 mph    
Max Gust Speed 28 mph    
Visibility 10 miles    
Events Rain    
Averages and records for this station are not official NWS values.
T = Trace of Precipitation, MM = Missing Value Source: NWS Daily Summary

Daily Weather History Graph

Daily Weather History Graph

Search for Another Location

Airport or City:

Trip Planner

Search our weather history database for the weather conditions in past years. The results will help you decide how hot, cold, wet, or windy it might be!

Date:

Astronomy

Apr. 26, 2014 Rise Set
Actual Time 5:41 AM PDT 7:56 PM PDT
Civil Twilight 5:08 AM PDT 8:29 PM PDT
Nautical Twilight 4:26 AM PDT 9:12 PM PDT
Astronomical Twilight 3:38 AM PDT 9:59 PM PDT
Moon 4:21 AM PDT (4/26) 5:19 PM PDT (4/26)
Length of Visible Light 15h 21m
Length of Day
14h 14m
Waning Crescent, 7% of the Moon is Illuminated
Apr 26
Waning Crescent
Apr 28
New
May 6
First Quarter
May 14
Full
May 21
Last Quarter

Hourly Weather History & Observations

Time (PDT) Temp. Windchill Dew Point Humidity Pressure Visibility Wind Dir Wind Speed Gust Speed Precip Events Conditions
12:18 AM 41.0 °F 36.4 °F 39.2 °F 93% 29.68 in 10.0 mi WSW 6.9 mph - N/A   Overcast
12:58 AM 41.9 °F 35.9 °F 38.5 °F 88% 29.70 in 10.0 mi SW 10.4 mph - 0.00 in   Overcast
1:57 AM 41.0 °F 35.8 °F 39.2 °F 93% 29.67 in 10.0 mi WSW 8.1 mph - N/A Rain Light Rain
1:58 AM 40.8 °F 35.6 °F 38.5 °F 91% 29.70 in 10.0 mi WSW 8.1 mph - N/A Rain Light Rain
2:07 AM 41.0 °F 35.8 °F 37.4 °F 87% 29.67 in 10.0 mi WSW 8.1 mph - N/A   Overcast
2:58 AM 40.1 °F 34.7 °F 37.2 °F 89% 29.68 in 10.0 mi WSW 8.1 mph - 0.00 in   Overcast
3:58 AM 36.7 °F 30.5 °F 34.9 °F 93% 29.68 in 10.0 mi WSW 8.1 mph - N/A   Clear
4:58 AM 37.2 °F 30.6 °F 34.7 °F 91% 29.70 in 10.0 mi SSW 9.2 mph - 0.00 in   Clear
5:41 AM 37.4 °F 30.8 °F 35.6 °F 93% 29.67 in 10.0 mi SW 9.2 mph - N/A   Partly Cloudy
5:58 AM 36.9 °F 31.4 °F 36.1 °F 97% 29.70 in 10.0 mi SSW 6.9 mph - 0.00 in   Scattered Clouds
6:02 AM 37.4 °F 32.1 °F 35.6 °F 93% 29.67 in 10.0 mi SSW 6.9 mph - N/A   Scattered Clouds
6:41 AM 37.4 °F 30.8 °F 37.4 °F 100% 29.67 in 10.0 mi SSW 9.2 mph - N/A   Partly Cloudy
6:51 AM 37.4 °F 30.3 °F 37.4 °F 100% 29.67 in 10.0 mi SSW 10.4 mph - N/A   Mostly Cloudy
6:58 AM 37.4 °F 29.3 °F 37.0 °F 99% 29.72 in 10.0 mi SSW 12.7 mph - 0.00 in   Mostly Cloudy
7:04 AM 37.4 °F 29.8 °F 37.4 °F 100% 29.68 in 10.0 mi SSW 11.5 mph - N/A   Mostly Cloudy
7:24 AM 37.4 °F 29.3 °F 37.4 °F 100% 29.68 in 10.0 mi SW 12.7 mph - N/A   Overcast
7:46 AM 37.4 °F 29.8 °F 37.4 °F 100% 29.68 in 10.0 mi SSW 11.5 mph - N/A   Overcast
7:58 AM 38.8 °F 31.6 °F 37.9 °F 97% 29.73 in 10.0 mi SSW 11.5 mph - 0.00 in   Overcast
7:59 AM 39.2 °F 31.6 °F 37.4 °F 93% 29.69 in 10.0 mi SSW 12.7 mph - N/A   Overcast
8:14 AM 39.2 °F 32.0 °F 37.4 °F 93% 29.69 in 10.0 mi SW 11.5 mph - N/A   Overcast
8:22 AM 41.0 °F 33.5 °F 37.4 °F 87% 29.69 in 10.0 mi SSW 13.8 mph - N/A   Overcast
8:33 AM 41.0 °F 33.9 °F 37.4 °F 87% 29.68 in 10.0 mi SW 12.7 mph - N/A   Mostly Cloudy
8:43 AM 42.8 °F 35.4 °F 37.4 °F 81% 29.68 in 10.0 mi SSW 15.0 mph - N/A   Scattered Clouds
8:50 AM 42.8 °F 35.8 °F 37.4 °F 81% 29.69 in 10.0 mi SSW 13.8 mph - N/A   Partly Cloudy
8:58 AM 42.4 °F 35.7 °F 37.2 °F 82% 29.69 in 10.0 mi SSW 12.7 mph - 0.00 in   Partly Cloudy
9:11 AM 42.8 °F 36.2 °F 37.4 °F 81% 29.69 in 10.0 mi SSW 12.7 mph - N/A   Mostly Cloudy
9:26 AM 44.6 °F 38.1 °F 37.4 °F 76% 29.68 in 10.0 mi SSW 13.8 mph - N/A   Scattered Clouds
9:48 AM 44.6 °F 38.4 °F 37.4 °F 76% 29.68 in 10.0 mi SW 12.7 mph - N/A   Scattered Clouds
9:58 AM 44.2 °F 38.0 °F 36.9 °F 75% 29.71 in 10.0 mi SSW 12.7 mph 17.3 mph 0.00 in   Mostly Cloudy
10:58 AM 46.2 °F 39.8 °F 37.9 °F 73% 29.72 in 10.0 mi SSW 15.0 mph - N/A   Mostly Cloudy
11:58 AM 48.2 °F - 35.8 °F 62% 29.70 in 10.0 mi South 13.8 mph - N/A   Scattered Clouds
12:58 PM 50.7 °F - 32.9 °F 51% 29.70 in 10.0 mi SSW 13.8 mph 20.7 mph N/A   Overcast
1:28 PM 51.8 °F - 32.0 °F 47% 29.67 in 10.0 mi SSW 18.4 mph - N/A   Light Drizzle
1:31 PM 51.8 °F - 32.0 °F 47% 29.67 in 10.0 mi SW 16.1 mph - N/A   Mostly Cloudy
1:35 PM 51.8 °F - 32.0 °F 47% 29.67 in 10.0 mi SSW 20.7 mph - N/A Rain Light Rain
1:38 PM 51.8 °F - 32.0 °F 47% 29.67 in 10.0 mi South 17.3 mph - N/A   Mostly Cloudy
1:58 PM 52.5 °F - 31.1 °F 44% 29.70 in 10.0 mi SW 20.7 mph - 0.00 in   Partly Cloudy
2:44 PM 51.8 °F - 32.0 °F 47% 29.67 in 10.0 mi SW 23.0 mph 27.6 mph N/A Rain Light Rain
2:49 PM 51.8 °F - 32.0 °F 47% 29.67 in 10.0 mi SW 19.6 mph 24.2 mph N/A   Scattered Clouds
2:58 PM 52.0 °F - 30.4 °F 44% 29.70 in 10.0 mi SW 18.4 mph 24.2 mph 0.00 in   Partly Cloudy
3:57 PM 50.0 °F - 32.0 °F 50% 29.67 in 10.0 mi SW 17.3 mph - N/A Rain Light Rain
3:58 PM 49.5 °F - 31.5 °F 50% 29.70 in 10.0 mi SW 18.4 mph - N/A Rain Light Rain
4:13 PM 50.0 °F - 32.0 °F 50% 29.67 in 10.0 mi SSW 16.1 mph - N/A   Mostly Cloudy
4:58 PM 52.3 °F - 30.6 °F 43% 29.70 in 10.0 mi SSW 15.0 mph - 0.00 in   Scattered Clouds
5:56 PM 50.0 °F - 30.2 °F 47% 29.67 in 10.0 mi SSW 12.7 mph - N/A Rain Light Rain
5:58 PM 50.0 °F - 32.0 °F 50% 29.70 in 10.0 mi SSW 12.7 mph - N/A Rain Light Rain
6:06 PM 51.8 °F - 30.2 °F 44% 29.66 in 10.0 mi South 9.2 mph - N/A   Scattered Clouds
6:58 PM 49.5 °F - 28.6 °F 45% 29.69 in 10.0 mi SSW 13.8 mph - 0.00 in   Clear
7:58 PM 45.7 °F 40.6 °F 29.5 °F 53% 29.71 in 10.0 mi South 10.4 mph - N/A   Clear
8:58 PM 42.4 °F 36.1 °F 28.8 °F 58% 29.72 in 10.0 mi South 11.5 mph - N/A   Clear
9:58 PM 41.7 °F 36.1 °F 23.4 °F 48% 29.73 in 10.0 mi South 9.2 mph - 0.00 in   Clear
10:58 PM 39.0 °F 32.3 °F 24.1 °F 55% 29.72 in 10.0 mi South 10.4 mph - N/A   Clear
11:58 PM 37.6 °F 31.0 °F 24.3 °F 59% 29.72 in 10.0 mi South 9.2 mph - 0.00 in   Clear